| time (UTC) | temp F | wind direction | speed MPH | gust MPH | rain 1hr in | rain 24hr in | rain mn in | humidity % | barometer mb |
| 20260503013020 | 68 | 86 | 0.0 | 2.0 | 0.00 | 0.00 | 0.00 | 67 | 1012.6 |
| 20260503011520 | 68 | 155 | 1.0 | 4.0 | 0.00 | 0.00 | 0.00 | 67 | 1012.7 |
| 20260503010022 | 68 | 220 | 1.0 | 7.0 | 0.00 | 0.00 | 0.00 | 67 | 1012.7 |
| 20260503004521 | 69 | 57 | 1.0 | 4.0 | 0.00 | 0.00 | 0.00 | 62 | 1012.5 |
| 20260503003024 | 69 | 57 | 1.0 | 3.0 | 0.00 | 0.00 | 0.00 | 62 | 1012.3 |
| 20260503001524 | 69 | 327 | 1.0 | 3.0 | 0.00 | 0.00 | 0.00 | 63 | 1012.2 |
| 20260503000018 | 68 | 295 | 1.0 | 3.0 | 0.00 | 0.00 | 0.00 | 63 | 1012.4 |
| 20260502234524 | 67 | 304 | 1.0 | 6.0 | 0.00 | 0.00 | 0.00 | 64 | 1012.4 |
| 20260502233023 | 67 | 322 | 1.0 | 4.0 | 0.00 | 0.00 | 0.00 | 64 | 1012.7 |
| 20260502231526 | 67 | 16 | 2.0 | 4.0 | 0.00 | 0.00 | 0.00 | 64 | 1013.1 |
| 20260502230018 | 67 | 344 | 3.0 | 6.0 | 0.00 | 0.00 | 0.00 | 64 | 1013.3 |
| 20260502224524 | 67 | 352 | 2.0 | 5.0 | 0.00 | 0.00 | 0.00 | 66 | 1013.4 |
| 20260502223008 | 67 | 333 | 3.0 | 6.0 | 0.00 | 0.00 | 0.00 | 66 | 1013.6 |
| 20260502221511 | 66 | 342 | 1.0 | 7.0 | 0.00 | 0.00 | 0.00 | 66 | 1013.9 |
| 20260502220019 | 65 | 36 | 3.0 | 10.0 | 0.00 | 0.00 | 0.00 | 66 | 1013.9 |
| 20260502214528 | 65 | 31 | 3.0 | 9.0 | 0.00 | 0.00 | 0.00 | 68 | 1014.1 |
| 20260502213006 | 64 | 352 | 2.0 | 6.0 | 0.00 | 0.00 | 0.00 | 70 | 1014.3 |
| 20260502211520 | 64 | 324 | 1.0 | 6.0 | 0.00 | 0.00 | 0.00 | 68 | 1014.4 |
| 20260502210016 | 63 | 136 | 1.0 | 6.0 | 0.00 | 0.00 | 0.00 | 69 | 1014.5 |
| 20260502204519 | 63 | 40 | 1.0 | 6.0 | 0.00 | 0.00 | 0.00 | 69 | 1014.7 |
| 20260502203026 | 63 | 19 | 2.0 | 5.0 | 0.00 | 0.00 | 0.00 | 67 | 1015.0 |
| 20260502201510 | 62 | 225 | 1.0 | 4.0 | 0.00 | 0.00 | 0.00 | 68 | 1015.3 |
| 20260502200012 | 62 | 9 | 1.0 | 3.0 | 0.00 | 0.00 | 0.00 | 68 | 1015.6 |
| 20260502194520 | 62 | 301 | 2.0 | 4.0 | 0.00 | 0.00 | 0.00 | 68 | 1015.9 |
| 20260502193024 | 61 | 92 | 1.0 | 5.0 | 0.00 | 0.00 | 0.00 | 70 | 1016.1 |
| 20260502191514 | 59 | 76 | 1.0 | 4.0 | 0.00 | 0.00 | 0.00 | 71 | 1016.2 |
| 20260502190026 | 58 | 58 | 3.0 | 5.0 | 0.00 | 0.00 | 0.00 | 73 | 1016.4 |
| 20260502184517 | 57 | 307 | 0.0 | 2.0 | 0.00 | 0.00 | 0.00 | 73 | 1016.4 |
| 20260502183022 | 57 | 291 | 1.0 | 6.0 | 0.00 | 0.00 | 0.00 | 74 | 1016.3 |
| 20260502181525 | 57 | 60 | 2.0 | 13.0 | 0.00 | 0.00 | 0.00 | 74 | 1016.0 |
| 20260502163019 | 54 | 338 | 1.0 | 2.0 | 0.00 | 0.00 | 0.00 | 77 | 1017.2 |
| 20260502161519 | 52 | 188 | 1.0 | 2.0 | 0.00 | 0.00 | 0.00 | 81 | 1017.3 |
| 20260502151521 | 49 | 162 | 0.0 | 2.0 | 0.00 | 0.00 | 0.00 | 89 | 1017.4 |
| 20260502123012 | 46 | 225 | 0.0 | 1.0 | 0.00 | 0.00 | 0.00 | 92 | 1017.1 |
| 20260502121521 | 46 | 153 | 0.0 | 2.0 | 0.00 | 0.00 | 0.00 | 91 | 1017.2 |
| 20260502114525 | 47 | 106 | 0.0 | 2.0 | 0.00 | 0.00 | 0.00 | 91 | 1017.0 |
| 20260502113025 | 47 | 134 | 0.0 | 2.0 | 0.00 | 0.00 | 0.00 | 91 | 1017.1 |
| 20260502111512 | 47 | 87 | 0.0 | 2.0 | 0.00 | 0.00 | 0.00 | 91 | 1016.7 |
| 20260502110018 | 47 | 52 | 0.0 | 2.0 | 0.00 | 0.00 | 0.00 | 91 | 1016.7 |
| 20260502104537 | 47 | 95 | 0.0 | 2.0 | 0.00 | 0.00 | 0.00 | 92 | 1016.8 |
| 20260502103023 | 47 | 326 | 0.0 | 2.0 | 0.00 | 0.00 | 0.00 | 92 | 1016.3 |
| 20260502101525 | 48 | 130 | 0.0 | 2.0 | 0.00 | 0.00 | 0.00 | 90 | 1016.7 |
| 20260502071525 | 51 | 69 | 0.0 | 2.0 | 0.00 | 0.00 | 0.00 | 86 | 1017.7 |
| 20260502070028 | 51 | 155 | 0.0 | 2.0 | 0.00 | 0.00 | 0.00 | 85 | 1017.7 |
| 20260502064531 | 51 | 175 | 1.0 | 3.0 | 0.00 | 0.00 | 0.00 | 85 | 1017.7 |
| 20260502063020 | 52 | 130 | 1.0 | 3.0 | 0.00 | 0.00 | 0.00 | 85 | 1017.7 |
| 20260502061504 | 52 | 52 | 0.0 | 2.0 | 0.00 | 0.00 | 0.00 | 85 | 1017.6 |
| 20260502060010 | 52 | 58 | 0.0 | 2.0 | 0.00 | 0.00 | 0.00 | 84 | 1017.5 |
| 20260502054514 | 53 | 52 | 1.0 | 2.0 | 0.00 | 0.00 | 0.00 | 84 | 1017.4 |
| 20260502053017 | 53 | 48 | 1.0 | 3.0 | 0.00 | 0.00 | 0.00 | 83 | 1017.2 |
| 20260502051522 | 53 | 142 | 0.0 | 2.0 | 0.00 | 0.00 | 0.00 | 83 | 1017.1 |
| 20260502050005 | 53 | 111 | 1.0 | 2.0 | 0.00 | 0.00 | 0.00 | 84 | 1017.1 |
| 20260502044509 | 53 | 57 | 0.0 | 2.0 | 0.00 | 0.00 | 0.00 | 83 | 1016.9 |
| 20260502043018 | 54 | 12 | 0.0 | 2.0 | 0.00 | 0.00 | 0.00 | 82 | 1016.9 |
| 20260502041521 | 55 | 50 | 0.0 | 2.0 | 0.00 | 0.00 | 0.00 | 81 | 1016.7 |
| 20260502040025 | 56 | 200 | 1.0 | 7.0 | 0.00 | 0.00 | 0.00 | 79 | 1016.7 |
| 20260502034508 | 57 | 115 | 1.0 | 4.0 | 0.00 | 0.00 | 0.00 | 78 | 1016.5 |
| 20260502033015 | 57 | 87 | 2.0 | 4.0 | 0.00 | 0.00 | 0.00 | 77 | 1016.2 |
| 20260502031518 | 58 | 130 | 4.0 | 8.0 | 0.00 | 0.00 | 0.00 | 76 | 1016.0 |
| 20260502030021 | 59 | 119 | 2.0 | 4.0 | 0.00 | 0.00 | 0.00 | 73 | 1015.8 |
| 20260502024525 | 61 | 62 | 0.0 | 4.0 | 0.00 | 0.00 | 0.00 | 72 | 1015.5 |
| 20260502023009 | 62 | 94 | 2.0 | 4.0 | 0.00 | 0.00 | 0.00 | 70 | 1015.4 |
| 20260502021516 | 64 | 5 | 0.0 | 2.0 | 0.00 | 0.00 | 0.00 | 69 | 1015.4 |
| 20260502020022 | 65 | 105 | 1.0 | 4.0 | 0.00 | 0.00 | 0.00 | 65 | 1015.3 |
| 20260502014523 | 67 | 73 | 1.0 | 4.0 | 0.00 | 0.00 | 0.00 | 63 | 1015.2 |